Location: Cassano d�Adda
(45.5333°N, 9.5167°E)
Time: 14:36:52
(UTC+00:00)

Cosmos 2219 Rocket - Pass Details

Date: 08 December 2019
Orbit: 826 x 848 km, 71.0° (Epoch: 28 January)

Event Time Altitude Azimuth Distance (km) Brightness Sun altitude
Rises 16:31:30 0° 206° (SSW) 3,358 6.2 -9.0°
Reaches altitude 10° 16:33:55 10° 206° (SSW) 2,431 5.4 -9.4°
Maximum altitude 16:39:30 85° 295° (WNW) 843 2.2 -10.3°
Drops below altitude 10° 16:45:10 10° 25° (NNE) 2,461 4.2 -11.3°
Enters shadow 16:46:19 - 26° (NNE) 2,895 4.6 -11.4°
